ONEWEB-0036, 45144

Orbit data source: Space-Track

ONEWEB-0036, 45144 is a payload satellite owned by One Web (UK) in LEO that was launched on Thu, 06 Feb 2020 UTC via a SOYUZ-2-1B launch vehicle from the Tyuratam Missile And Space Complex (TTMTR). Payload-class satellites include a variety of spacecraft equipped with specific instruments for various scientific and technological missions. These include communications satellites like Starlink; space stations such as the ISS; scientific satellites like the Hubble; Earth observation satellites from companies like Planet Labs, Umbra, and HawkEye 360; GPS; miniature CubeSats for education and research; and military/defense satellites.

Loading next visibility...
Identifier
45144, 2020-008P
Orbit
LEO
Country
Flag of UKUK
Related business
Manufacturer
One Web
Mission
Operational Commercial Communications
Bus & Motor
ARROW, Unknown motor
Mass
148 kg wet, ~140 kg dry
Launch date (UTC)
2020-02-06 (6 years ago)
Launch vehicle
SOYUZ-2-1B
Launch site
Tyuratam Missile And Space Complex (TTMTR)
Object type
Payload
Rocket body
Debris
Shape & HBR
Trap Box + 2 Pan, 6.7 m
Radar Cross Section
3.464 m², Large (>1 m²)

Expand to show TLE details & history
Last TLE update: 19 hours ago

TLE from 19 hours ago
0 ONEWEB-0036
1 45144U 20008P   25286.89702394  .00000636  00000-0  17862-2 0  9994
2 45144  87.8756  85.3426 0001565  84.7154 275.4152 13.10372452276116
Epoch: 2025-10-13T21:31Z
TLE epoch observation values (Epoch: 2025-10-13T21:31:42.868Z)
Latitude
-0°
Longitude
99.72077°
Altitude
1,224.494 km
Speed
7.242 km/s
True Right ascension
05h 41m 22s
True Declination
0° 00' 00"
Sunlit
Object was in daylight at epoch
Visualization orbit readout
Latitude
Unknown
Longitude
Unknown
Altitude
Unknown
Speed
Unknown
Apparent Right ascension
Unknown
Apparent Declination
Unknown
Sunlit
N/A
Visualization observer readout
Local Sidereal Time
11:34:05
Azimuth
Unknown
Elevation
Unknown
Doppler factor
Unknown
Orbital elements
Apogee altitude
1,220.027 km
Perigee altitude
1,217.65 km
Semi-major axis
7,596.975 km
Eccentricity
0.00016
Inclination
87.8756°
RAAN
85.3426°
Arg. of periapsis
84.7154°
True anomaly
275.39735°
Mean anomaly
275.4152°
Eccentric anomaly
275.40627°
Mean motion
3.2778 °/min
Orbital period
109.83 mins
BSTAR
0.0017862
Loading maneuver chart data...
Computing Atmospheric mass density...
Loading historical data...
Loading historical data...
Loading historical data...
Loading historical data...
Loading historical data...
Loading historical data...
Loading historical data...

Documentation

Showing up to 5 results
|